Zurück zum Katalog

ARIANE 5 R/B

AktivHEO
NORAD 39235·ROCKET BODY·🇫🇷 France

Gestartet Aug 29, 2013 von Guiana Space Centre

Loading…

Nächste Überflüge (nächste 24 Stunden)

TLE

AktuellSource: Space-Track

Epoche: Sep 14, 2026, 17:41 UTC

1 39235U 13044C   26257.73743126  .00001781  00000-0  54369-3 0  9996
2 39235   3.6059 105.9719 7005193 155.2097 268.4843  2.62961402116356

Verfolge ARIANE 5 R/B in Echtzeit mit AllMySat

Download on the App Store